GW3787 Weather Reports


Display with metric or nautical units.
time (UTC)temp
F
wind
direction
speed
MPH
gust
MPH
rain 1hr
in
rain 24hr
in
rain mn
in
humidity
%
barometer
mb
20260503184506 68 330 2.0 14.0 0.00 0.00 0.00 28 1007.0
20260503183111 67 360 2.0 14.0 0.00 0.00 0.00 26 1007.3
20260503181558 67 301 2.0 13.0 0.00 0.00 0.00 25 1007.4
20260503180058 66 334 2.0 11.0 0.00 0.00 0.00 25 1007.7
20260503174552 67 324 7.0 13.0 0.00 0.00 0.00 25 1007.9
20260503173109 66 319 3.0 9.0 0.00 0.00 0.00 26 1008.2
20260503171551 67 343 3.0 12.0 0.00 0.00 0.00 28 1008.4
20260503130106 55 312 3.0 11.0 0.00 0.00 0.00 47 1008.9
20260503081534 49 230 0.0 5.0 0.00 0.00 0.00 63 1011.6
20260503071516 48 251 7.0 9.0 0.00 0.00 0.00 65 1011.8
20260503060106 47 253 3.0 8.0 0.00 0.00 0.00 68 1012.2
20260503054557 46 234 0.0 4.0 0.00 0.00 0.00 69 1012.3
20260503053057 44 234 1.0 5.0 0.00 0.00 0.00 70 1012.3
20260503051559 46 234 1.0 5.0 0.00 0.00 0.00 67 1012.4
20260503050054 46 234 0.0 4.0 0.00 0.00 0.00 64 1012.3
20260503044555 50 234 2.0 8.0 0.00 0.00 0.00 58 1012.3
20260503043055 45 199 5.0 8.0 0.00 0.00 0.00 69 1012.4
20260503041552 44 91 0.0 3.0 0.00 0.00 0.00 66 1012.2
20260503040051 46 91 0.0 2.0 0.00 0.00 0.00 62 1012.1
20260503034551 50 91 0.0 2.0 0.00 0.00 0.00 61 1012.3
20260503033051 51 91 0.0 1.0 0.00 0.00 0.00 59 1012.3
20260503031550 51 91 0.0 3.0 0.00 0.00 0.00 61 1012.2
20260503030048 51 91 0.0 2.0 0.00 0.00 0.00 61 1012.1
20260503024550 53 91 0.0 1.0 0.00 0.00 0.00 54 1011.9
20260503023048 55 91 0.0 0.0 0.00 0.00 0.00 48 1011.8
20260503021551 57 91 0.0 0.0 0.00 0.00 0.00 47 1011.6
20260503020053 58 91 0.0 1.0 0.00 0.00 0.00 45 1011.6
20260503014618 60 91 0.0 0.0 0.00 0.00 0.00 42 1011.5
20260503013046 62 91 0.0 0.0 0.00 0.00 0.00 40 1011.7
20260503011555 63 91 0.0 1.0 0.00 0.00 0.00 37 1011.7
20260503010052 63 91 0.0 7.0 0.00 0.00 0.00 39 1011.8
20260503004556 63 135 0.0 1.0 0.00 0.00 0.00 38 1011.9
20260503003045 63 135 0.0 1.0 0.00 0.00 0.00 38 1012.1
20260503001547 63 135 0.0 0.0 0.00 0.00 0.00 37 1012.1
20260503000043 64 135 0.0 5.0 0.00 0.00 0.00 37 1012.2
20260502234545 65 148 0.0 9.0 0.00 0.00 0.00 36 1012.3
20260502233045 65 216 0.0 3.0 0.00 0.00 0.00 36 1012.3
20260502231540 64 216 0.0 3.0 0.00 0.00 0.00 37 1012.4
20260502230039 63 216 0.0 5.0 0.00 0.00 0.00 39 1012.5
20260502224538 63 297 3.0 7.0 0.00 0.00 0.00 37 1012.8
20260502223041 64 95 0.0 4.0 0.00 0.00 0.00 38 1013.0
20260502221538 62 95 0.0 4.0 0.00 0.00 0.00 39 1013.3
20260502220038 62 61 2.0 6.0 0.00 0.00 0.00 38 1013.5
20260502214536 62 56 0.0 4.0 0.00 0.00 0.00 39 1013.6
20260502213036 62 56 2.0 7.0 0.00 0.00 0.00 37 1013.8
20260502211542 62 41 0.0 8.0 0.00 0.00 0.00 39 1014.0
20260502210039 62 360 2.0 10.0 0.00 0.00 0.00 39 1014.1
20260502204535 62 314 0.0 9.0 0.00 0.00 0.00 41 1014.1
20260502203034 62 329 0.0 5.0 0.00 0.00 0.00 39 1014.2
20260502201535 64 16 3.0 10.0 0.00 0.00 0.00 37 1014.3
20260502200030 62 360 0.0 10.0 0.00 0.00 0.00 40 1014.5
20260502194529 62 33 2.0 9.0 0.00 0.00 0.00 40 1014.7
20260502193027 61 24 1.0 8.0 0.00 0.00 0.00 45 1014.8
20260502191523 60 16 3.0 13.0 0.00 0.00 0.00 44 1015.1
20260502190028 59 23 3.0 9.0 0.00 0.00 0.00 44 1015.2